This is the latest recevied weather packets stored in our database for station/object OK2JF-6. If no packets are shown the sender has not sent any weather packets the latest 10 day(s).
| Time | Temp. | Humidity | Pressure | Rain* | Wind** | Luminosity | Snow |
|---|---|---|---|---|---|---|---|
| 1777652164 | 17.78° C | 41% | 1097.3 hPa | 0 mm | - | 80 W/m² | - |
| 1777651923 | 17.78° C | 41% | 1097.5 hPa | 0 mm | - | 84 W/m² | - |
| 1777651503 | 17.78° C | 41% | 1097.4 hPa | 0 mm | - | 93 W/m² | - |
| 1777651443 | 17.78° C | 40% | 1097.5 hPa | 0 mm | - | 94 W/m² | - |
| 1777651263 | 17.78° C | 40% | 1097.6 hPa | 0 mm | - | 98 W/m² | - |
| 1777651203 | 17.78° C | 40% | 1097.7 hPa | 0 mm | - | 99 W/m² | - |
| 1777650903 | 17.78° C | 41% | 1097.4 hPa | 0 mm | - | 104 W/m² | - |
| 1777650783 | 17.78° C | 41% | 1097.5 hPa | 0 mm | - | 106 W/m² | - |
| 1777650196 | 17.78° C | 41% | 1097.6 hPa | 0 mm | - | 122 W/m² | - |
| 1777649583 | 17.78° C | 41% | 1097.7 hPa | 0 mm | - | 134 W/m² | - |
| 1777649223 | 17.78° C | 40% | 1097.6 hPa | 0 mm | - | 147 W/m² | - |
| 1777648983 | 17.78° C | 40% | 1097.5 hPa | 0 mm | - | 43 W/m² | - |
| 1777648877 | 17.78° C | 40% | 1097.6 hPa | 0 mm | - | 152 W/m² | - |
| 1777648623 | 17.78° C | 40% | 1097.9 hPa | 0 mm | - | 161 W/m² | - |
| 1777648204 | 17.78° C | 41% | 1098.1 hPa | 0 mm | - | 170 W/m² | - |
| 1777647964 | 17.78° C | 41% | 1097.8 hPa | 0 mm | - | 181 W/m² | - |
| 1777647663 | 17.78° C | 40% | 1097.7 hPa | 0 mm | - | 165 W/m² | - |
| 1777645744 | 17.78° C | 40% | 1098.1 hPa | 0 mm | - | 167 W/m² | - |
| 1777645684 | 17.78° C | 40% | 1098.1 hPa | 0 mm | - | 244 W/m² | - |
| 1777645503 | 17.78° C | 39% | 1097.9 hPa | 0 mm | - | 249 W/m² | - |
| 1777645443 | 17.78° C | 39% | 1098.1 hPa | 0 mm | - | 250 W/m² | - |
| 1777645083 | 17.78° C | 39% | 1097.9 hPa | 0 mm | - | 221 W/m² | - |
| 1777644978 | 17.78° C | 39% | 1098.1 hPa | 0 mm | - | 258 W/m² | - |
| 1777644963 | 17.78° C | 39% | 1098.1 hPa | 0 mm | - | 261 W/m² | - |
| 1777644603 | 17.78° C | 40% | 1098.2 hPa | 0 mm | - | 272 W/m² | - |
* Rain latest hour (hover to see other rain measurements)
** Current wind speed in m/s (hover to see current wind gust speed)